Вернуться в каталог

DELTA 1 DEB

АктивенLEO
NORAD 10262·DEBRIS·🇺🇸 United States

Запущен Jul 14, 1977 с Cape Canaveral Space Force Station

Loading…

Ближайшие Пролёты (ближайшие 24 часа)

TLE

СвежийSource: Space-Track

Эпоха: Sep 14, 2026, 00:46 UTC

1 10262U 77065CP  26257.03244404  .00000932  00000-0  17402-3 0  9990
2 10262  29.0566 172.3964 0632429 170.3937 190.9378 13.77097835418515

Отслеживайте DELTA 1 DEB в реальном времени с AllMySat

Download on the App Store